Regional Weather Roundup
Issued by NWS Mt. Holly, NJ

Current Version | Previous Version | Text Only | Print | Product List | Glossary Off
Versions: 1 2 3 4 5 6 7 8 9 10 11 12 13 14 15 16 17 18 19 20 21 22 23 24 25 26 27 28 29 30 31 32 33 34 35 36 37 38 39 40 41 42 43 44 45 46 47 48 49 50

000
ASUS41 KPHI 250110
RWRPHI

REGIONAL WEATHER ROUNDUP
NATIONAL WEATHER SERVICE MOUNT HOLLY NJ
900 PM EDT THU JUL 24 2014

NOTE:  "FAIR" INDICATES FEW OR NO CLOUDS BELOW 12,000 FEET WITH NO
SIGNIFICANT WEATHER AND/OR OBSTRUCTIONS TO VISIBILITY.

 * = STATION DOES NOT REPORT PRECIPITATION (E.G. RAIN, SNOW, ETC.)
        OR FOG.

NJZ015>026-250200-
SOUTHERN NEW JERSEY

CITY           SKY/WX    TMP DP  RH WIND       PRES   REMARKS
POMONA         CLOUDY    71  67  87 E6        29.88R
RIO GRANDE*    CLOUDY    72  63  73 CALM      29.88F
MILLVILLE      CLOUDY    73  61  65 NW3       29.88S
WRIGHTSTOWN    CLOUDY    73  57  58 NW7       29.87R
MOUNT HOLLY    CLOUDY    73  56  54 N5        29.88S
TRENTON        CLOUDY    72  55  55 N6        29.89R

$$
NJZ001>014-250200-
NORTHERN NEW JERSEY

CITY           SKY/WX    TMP DP  RH WIND       PRES   REMARKS
SUSSEX         MOCLDY    72  53  51 NW5       29.92R
ANDOVER*         N/A     68  54  60 VRB5      29.93R
MORRISTOWN     PTCLDY    72  54  53 N6        29.90R
NEWARK         CLOUDY    77  55  46 NW13      29.88R
TETERBORO      CLOUDY    78  56  46 NE5       29.87R
CALDWELL       CLOUDY    73  54  51 NW3       29.90R
SOMERVILLE     CLOUDY    72  55  55 N3        29.88R
ALLAIRE*       MOCLDY    73  61  64 S5        29.88R
TOMS RIVER*    MOCLDY    72  64  78 CALM      29.89R

$$
PAZ043-044-047-054-055-060>062-066>071-250200-
EASTERN PENNSYLVANIA

CITY           SKY/WX    TMP DP  RH WIND       PRES   REMARKS
PHILADELPHIA   CLOUDY    77  53  43 N10       29.89S
NORTH PHILA    CLOUDY    75  53  46 N8        29.91R
BLUE BELL      CLOUDY    73  55  53 CALM      29.90S
DOYLESTOWN     CLOUDY    70  56  61 N6        29.91R
QUAKERTOWN*    MOCLDY    70  54  56 N5        29.93S
POTTSTOWN      CLOUDY    71  54  54 N7        29.93R
LANCASTER      MOCLDY    69  53  56 N8        29.93R
COATESVILLE    CLOUDY    70  55  60 N6        29.93R
READING        MOCLDY    71  55  56 N7        29.92S
ALLENTOWN      MOCLDY    70  53  54 N6        29.92R
MOUNT POCONO   MOCLDY    61  32  33 N5        29.98R
HAZLETON       PTCLDY    63  50  63 N6        30.01R
WILKES BARRE   PTCLDY    67  49  52 N7        29.96R

$$
DEZALL-MDZ008-012-015-019-020-250200-
DELAWARE AND EASTERN MARYLAND

CITY           SKY/WX    TMP DP  RH WIND       PRES   REMARKS
WILMINGTON     CLOUDY    74  56  53 N8        29.90R
DOVER          CLOUDY    73  61  64 W5        29.87S
GEORGETOWN     CLOUDY    74  68  81 S7        29.89S
EASTON         CLOUDY    73  70  88 CALM      29.94R
PATUXENT       CLOUDY    68  66  93 SW6       29.90R
OCEAN CITY     CLOUDY    71  68  90 CALM      29.89S
WALLOPS ISLAND LGT RAIN  74  70  87 CALM      29.90S
CAMBRIDGE      CLOUDY    72  68  88 CALM      29.89R

$$
PAZ001-021-NYZ056-072-MDZ011-DCZ001-250200-
OTHER NEARBY LOCATIONS

CITY           SKY/WX    TMP DP  RH WIND       PRES   REMARKS
HARRISBURG     MOCLDY    73  53  49 N5        29.93R
STATE COLLEGE  PTCLDY    66  52  59 CALM      29.98S
WILLIAMSPORT   CLEAR     69  50  50 N3        29.95S
BINGHAMTON     CLEAR     59  49  69 NW5       30.00R
NEW YORK CITY  MOCLDY    77  55  46 N5        29.91R
BALTIMORE      MOCLDY    72  58  61 NW3       29.91R
WASHINGTON DC  MOCLDY    76  56  49 N9        29.92R

$$



USA.gov is the U.S. government's official web portal to all federal, state and local government web resources and services.